Regional Weather Roundup
Issued by NWS

Home | Current Version | Previous Version | Text Only | Print | Product List | Glossary Off
Versions: 1 2 3 4 5 6 7 8 9 10 11 12 13 14 15 16 17 18 19 20 21 22 23 24 25 26 27 28 29 30 31 32 33 34 35 36 37 38 39 40 41 42 43 44 45 46 47 48 49 50

085
ASUS43 KFSD 120702
RWRSD

WEATHER ROUNDUP FOR SOUTH DAKOTA
NATIONAL WEATHER SERVICE SIOUX FALLS SD
100 AM CST FRI FEB 12 2016

NOTE: "FAIR" INDICATES FEW OR NO CLOUDS BELOW 12,000 FEET WITH NO
SIGNIFICANT WEATHER AND/OR OBSTRUCTIONS TO VISIBILITY.


SDZ001>005-009-010-012>017-120800-
NORTHWEST AND NORTH CENTRAL SOUTH DAKOTA

CITY           SKY/WX    TMP DP  RH WIND       PRES   REMARKS
BUFFALO          N/A     29  24  82 N7        30.19R WCI  22
FAITH            N/A     25  20  81 N8        30.26R WCI  16
MOBRIDGE       CLOUDY    21  16  81 N6        30.28R WCI  13
$$

SDZ012>016-024>037-041>051-057-063-072>074-120800-
SOUTHWEST AND SOUTH CENTRAL SOUTH DAKOTA

CITY           SKY/WX    TMP DP  RH WIND       PRES   REMARKS
RAPID CTY ARPT CLOUDY    31  27  85 NE7       30.24S WCI  24
PIERRE         CLOUDY    25  22  88 N15       30.28R WCI  13
CUSTER         CLOUDY    33  23  66 W9G20     30.20R WCI  25
ELLSWORTH AFB  CLOUDY    31  29  92 NE1       30.23
PHILIP         CLOUDY    32  28  85 NW8       30.26S WCI  25
PINE RIDGE     CLOUDY    34  29  82 N3        30.24S
WINNER         CLOUDY    27  23  85 W7        30.26R WCI  19
$$

SDZ004>011-016>023-039-040-120800-
NORTHEAST SOUTH DAKOTA

CITY           SKY/WX    TMP DP  RH WIND       PRES   REMARKS
ABERDEEN       CLOUDY    12   8  84 NW6       30.32R WCI   3
WATERTOWN      PTCLDY    10   6  84 N9        30.23R WCI  -3
BROOKINGS      CLOUDY    17  13  84 N10       30.22R WCI   5
SISSETON         N/A      7   4  87 N10       30.29R WCI  -8
$$

SDZ017-020-022-023-036>040-048>070-120800-
SOUTHEAST SOUTH DAKOTA

CITY           SKY/WX    TMP DP  RH WIND       PRES   REMARKS
SIOUX FALLS    CLOUDY    15  11  83 W6        30.24S WCI   6
HURON          CLOUDY    18  14  84 N13       30.30R WCI   5
MITCHELL       CLOUDY    22  19  89 N14       30.29R WCI   9
YANKTON        PTCLDY    16  10  79 NW12      30.27S WCI   3
$$

ABBREVIATIONS USED IN REMARKS
   TC - TEMPERATURE IN CELSIUS
  WCI - WIND CHILL INDEX
   HX - HEAT INDEX
  VSB - VISIBILITY





USA.gov is the U.S. government's official web portal to all federal, state and local government web resources and services.